Date String (YYYY-MM-DD hh:mm:ss) UTC,Instrument flags,absolute air pressure of the measurement (hPa),sample flow rate (lpm),inlet stack bypass flow (lpm),air temperature of the measurement (°C),ambient temperature measured by the external sensor (°C),aerosol sample conditioner tube jacket temperature (°C),OPC LED temperature (°C),internal box temperature (°C),relative humidity of the measurement (%),span deviation,mass concentration of particles derived from Lorenz-Mie calculation of OPC scattering (μg/m³),mass concentration of particles derived from Lorenz-Mie calculation of OPC scattering (μg/m³),mass concentration of particles derived from Lorenz-Mie calculation of OPC scattering (μg/m³)
DateTimeUTC,F1_M11,P_M11,Q1_M11,Q2_M11,T1_M11,T2_M11,T3_M11,T4_M11,T5_M11,U1_M11,ZSPAN_M11,X0_M11,X2_M11,X1_M11
2023-11-14 23:00:00,SystemResetWarning,0830.2,5.00,000.00,027.9,027.1,000.0,035.9,029.4,6.4,0000.0,0003.14,0001.64,0001.35
2023-11-14 23:01:00,SystemResetWarning,0830.3,4.99,000.00,027.9,027.1,000.0,035.9,029.5,6.5,0000.0,0004.21,0001.68,0001.37
2023-11-14 23:02:00,SystemResetWarning,0830.3,5.00,000.00,027.9,027.2,000.0,036.0,029.5,6.6,0000.0,0004.57,0001.69,0001.38
2023-11-14 23:03:00,SystemResetWarning,0830.3,5.00,000.00,028.0,027.3,000.0,036.0,029.6,6.5,0000.0,0004.65,0001.73,0001.40
2023-11-14 23:04:00,SystemResetWarning,0830.4,5.00,000.00,028.0,027.3,000.0,036.0,029.6,6.6,0000.0,0004.69,0001.75,0001.41
2023-11-14 23:05:00,SystemResetWarning,0830.4,5.00,000.00,028.1,027.4,000.0,036.1,029.7,6.6,0000.0,0004.70,0001.76,0001.42
2023-11-14 23:06:00,SystemResetWarning,0830.4,5.00,000.00,028.1,027.3,000.0,036.1,029.7,6.6,0000.0,0004.71,0001.76,0001.41
2023-11-14 23:07:00,SystemResetWarning,0830.4,4.99,000.00,028.1,025.4,000.0,036.1,029.5,6.6,0000.0,0004.72,0001.77,0001.41
2023-11-14 23:08:00,SystemResetWarning,0830.3,5.01,000.00,027.9,023.6,000.0,036.1,029.1,6.7,0000.0,0004.48,0001.81,0001.42
2023-11-14 23:09:00,SystemResetWarning,0830.3,5.01,000.00,027.8,023.5,000.0,036.0,028.9,6.7,0000.0,0004.43,0001.82,0001.43
2023-11-14 23:10:00,SystemResetWarning,0830.3,4.99,000.00,027.6,023.9,000.0,036.0,028.5,6.7,0000.0,0004.86,0001.85,0001.43
2023-11-14 23:11:00,SystemResetWarning,0830.3,4.99,000.00,027.5,024.4,000.0,035.9,028.5,6.8,0000.0,0004.93,0001.92,0001.43
2023-11-14 23:12:00,SystemResetWarning,0830.3,5.00,000.00,027.5,024.8,000.0,035.9,028.7,6.8,0000.0,0004.10,0001.93,0001.44
2023-11-14 23:13:00,SystemResetWarning,0830.3,5.00,000.00,027.5,025.2,000.0,035.8,028.8,6.8,0000.0,0003.82,0001.98,0001.45
2023-11-14 23:14:00,SystemResetWarning,0830.3,5.01,000.00,027.5,025.6,000.0,035.8,028.9,6.8,0000.0,0004.02,0002.05,0001.47
2023-11-14 23:15:00,SystemResetWarning,0830.3,5.01,000.00,027.5,025.9,000.0,035.8,028.9,6.5,0000.0,0004.14,0002.08,0001.47
2023-11-14 23:16:00,SystemResetWarning,0830.3,4.99,000.00,027.6,026.1,000.0,035.8,029.0,6.7,0000.0,0004.34,0002.08,0001.48
2023-11-14 23:17:00,SystemResetWarning,0830.3,4.99,000.00,027.6,026.3,000.0,035.8,029.1,6.4,0000.0,0005.11,0002.09,0001.48
2023-11-14 23:18:00,SystemResetWarning,0830.3,5.00,000.00,027.6,026.5,000.0,035.8,029.2,6.3,0000.0,0005.14,0002.08,0001.50
2023-11-14 23:19:00,SystemResetWarning,0830.3,5.01,000.00,027.7,026.6,000.0,035.8,029.3,6.4,0000.0,0005.79,0002.07,0001.50
2023-11-14 23:20:00,SystemResetWarning,0830.3,5.01,000.00,027.7,026.7,000.0,035.9,029.3,6.4,0000.0,0005.77,0002.06,0001.51
2023-11-14 23:21:00,SystemResetWarning,0830.3,5.00,000.00,027.8,026.9,000.0,035.9,029.4,6.4,0000.0,0005.52,0002.04,0001.50
2023-11-14 23:22:00,SystemResetWarning,0830.3,5.00,000.00,027.8,027.0,000.0,035.9,029.4,6.6,0000.0,0005.50,0001.99,0001.49
2023-11-14 23:23:00,SystemResetWarning,0830.3,4.99,000.00,027.9,027.0,000.0,035.9,029.5,6.6,0000.0,0006.37,0001.98,0001.48
2023-11-14 23:24:00,SystemResetWarning,0830.3,4.99,000.00,027.9,027.1,000.0,036.0,029.5,6.7,0000.0,0006.37,0001.93,0001.47
2023-11-14 23:25:00,SystemResetWarning,0830.3,5.00,000.00,027.9,027.2,000.0,036.0,029.6,6.7,0000.0,0006.48,0001.85,0001.45
2023-11-14 23:26:00,SystemResetWarning,0830.3,5.01,000.00,028.0,027.2,000.0,036.0,029.6,6.6,0000.0,0006.25,0001.76,0001.44
2023-11-14 23:27:00,SystemResetWarning,0830.3,5.01,000.00,028.0,027.3,000.0,036.1,029.6,6.4,0000.0,0005.99,0001.74,0001.45
2023-11-14 23:28:00,SystemResetWarning,0830.3,5.00,000.00,028.1,027.3,000.0,036.1,029.7,6.2,0000.0,0005.33,0001.76,0001.45
2023-11-14 23:29:00,SystemResetWarning,0830.3,4.97,000.00,028.1,026.3,000.0,036.1,029.6,6.3,0000.0,0005.39,0001.76,0001.43
2023-11-14 23:30:00,SystemResetWarning,0830.3,5.01,000.00,028.0,024.0,000.0,036.1,029.2,6.3,0000.0,0004.92,0001.79,0001.43
2023-11-14 23:31:00,SystemResetWarning,0830.3,5.00,000.00,027.8,023.1,000.0,036.0,028.9,6.4,0000.0,0004.83,0001.80,0001.43
2023-11-14 23:32:00,SystemResetWarning,0830.3,5.01,000.00,027.7,023.4,000.0,035.9,028.5,6.5,0000.0,0005.53,0001.80,0001.43
2023-11-14 23:33:00,SystemResetWarning,0830.3,5.00,000.00,027.5,023.9,000.0,035.9,028.4,6.7,0000.0,0005.44,0001.79,0001.43
2023-11-14 23:34:00,SystemResetWarning,0830.3,5.00,000.00,027.4,024.4,000.0,035.8,028.5,6.6,0000.0,0004.19,0001.79,0001.42
2023-11-14 23:35:00,SystemResetWarning,0830.3,5.00,000.00,027.4,024.9,000.0,035.8,028.6,6.6,0000.0,0004.11,0001.78,0001.42
2023-11-14 23:36:00,SystemResetWarning,0830.3,5.00,000.00,027.4,025.2,000.0,035.8,028.7,6.0,0000.0,0003.58,0001.81,0001.42
2023-11-14 23:37:00,SystemResetWarning,0830.3,5.00,000.00,027.4,025.6,000.0,035.8,028.8,6.2,0000.0,0003.74,0001.87,0001.43
2023-11-14 23:38:00,SystemResetWarning,0830.3,5.00,000.00,027.4,025.8,000.0,035.8,028.9,6.0,0000.0,0003.87,0001.92,0001.44
2023-11-14 23:39:00,SystemResetWarning,0830.3,4.98,000.00,027.5,026.0,000.0,035.7,028.9,5.8,0000.0,0003.85,0001.89,0001.43
2023-11-14 23:40:00,SystemResetWarning,0830.4,4.99,000.00,027.5,026.2,000.0,035.8,029.0,5.9,0000.0,0004.16,0001.88,0001.43
2023-11-14 23:41:00,SystemResetWarning,0830.4,5.01,000.00,027.5,026.4,000.0,035.8,029.0,6.1,0000.0,0004.10,0001.84,0001.44
2023-11-14 23:42:00,SystemResetWarning,0830.4,5.01,000.00,027.6,026.5,000.0,035.8,029.1,6.3,0000.0,0003.90,0001.81,0001.43
2023-11-14 23:43:00,SystemResetWarning,0830.4,5.00,000.00,027.6,026.6,000.0,035.8,029.2,6.3,0000.0,0004.02,0001.78,0001.42
2023-11-14 23:44:00,SystemResetWarning,0830.4,5.00,000.00,027.6,026.7,000.0,035.8,029.2,6.4,0000.0,0003.92,0001.81,0001.40
2023-11-14 23:45:00,SystemResetWarning,0830.4,5.00,000.00,027.7,026.8,000.0,035.8,029.3,6.5,0000.0,0004.29,0001.82,0001.38
2023-11-14 23:46:00,SystemResetWarning,0830.4,4.99,000.00,027.7,026.8,000.0,035.8,029.3,6.5,0000.0,0005.20,0001.80,0001.38
2023-11-14 23:47:00,SystemResetWarning,0830.4,5.00,000.00,027.7,026.9,000.0,035.9,029.4,6.5,0000.0,0005.29,0001.80,0001.38
2023-11-14 23:48:00,SystemResetWarning,0830.4,5.00,000.00,027.8,027.0,000.0,035.9,029.4,6.1,0000.0,0006.02,0001.83,0001.38
2023-11-14 23:49:00,SystemResetWarning,0830.4,5.00,000.00,027.8,027.0,000.0,035.9,029.4,6.0,0000.0,0006.27,0001.79,0001.37
2023-11-14 23:50:00,SystemResetWarning,0830.4,5.00,000.00,027.9,027.1,000.0,035.9,029.4,5.9,0000.0,0006.36,0001.82,0001.37
2023-11-14 23:51:00,SystemResetWarning,0830.5,5.01,000.00,027.9,027.1,000.0,036.0,029.5,5.8,0000.0,0006.29,0001.89,0001.38
2023-11-14 23:52:00,SystemResetWarning,0830.4,5.01,000.00,027.9,027.2,000.0,036.0,029.5,5.9,0000.0,0006.17,0001.92,0001.38
2023-11-14 23:53:00,SystemResetWarning,0830.4,5.00,000.00,028.0,027.2,000.0,036.0,029.5,6.0,0000.0,0006.26,0001.95,0001.38
2023-11-14 23:54:00,SystemResetWarning,0830.4,5.00,000.00,028.0,027.2,000.0,036.1,029.6,6.0,0000.0,0006.11,0001.97,0001.39
2023-11-14 23:55:00,SystemResetWarning,0830.4,5.00,000.00,028.0,027.3,000.0,036.1,029.6,6.0,0000.0,0005.59,0001.96,0001.39
2023-11-14 23:56:00,SystemResetWarning,0830.4,5.00,000.00,028.1,027.3,000.0,036.1,029.6,6.0,0000.0,0005.82,0001.94,0001.40
2023-11-14 23:57:00,SystemResetWarning,0830.4,5.00,000.00,028.1,027.3,000.0,036.2,029.6,6.0,0000.0,0005.15,0001.93,0001.40
2023-11-14 23:58:00,SystemResetWarning,0830.4,4.99,000.00,028.1,026.8,000.0,036.2,029.6,5.9,0000.0,0005.73,0001.99,0001.40
2023-11-14 23:59:00,SystemResetWarning,0830.4,4.99,000.00,028.0,024.5,000.0,036.1,029.3,6.0,0000.0,0006.19,0002.01,0001.40
